Overview Statistics Trail Chart Weather Telemetry Raw packets
 

This is the latest recevied weather packets stored in our database for station/object N5JXS. If no packets are shown the sender has not sent any weather packets the latest 10 day(s).

<< 49 50 51 52 53 54 55 >>
Time Temp. Humidity Pressure Rain* Wind** Luminosity Snow
1788291161 25.56° C 33% 1026.2 hPa 0 mm - 604 W/m² -
1788290856 26.11° C 32% 1026.3 hPa 0 mm - 715 W/m² -
1788290551 26.67° C 31% 1026.2 hPa 0 mm - 706 W/m² -
1788290247 26.11° C 32% 1026.5 hPa 0 mm - 692 W/m² -
1788289943 26.11° C 33% 1026.3 hPa 0 mm - 688 W/m² -
1788289639 25.56° C 34% 1026.2 hPa 0 mm - 553 W/m² -
1788289338 25.56° C 33% 1026.6 hPa 0 mm - 684 W/m² -
1788289037 25.56° C 33% 1026.5 hPa 0 mm - 616 W/m² -
1788288735 25° C 34% 1026.5 hPa 0 mm - 608 W/m² -
1788288431 24.44° C 35% 1026.7 hPa 0 mm - 610 W/m² -
1788288126 25° C 35% 1026.8 hPa 0 mm - 610 W/m² -
1788287822 25° C 36% 1026.6 hPa 0 mm - 610 W/m² -
1788287521 24.44° C 35% 1026.6 hPa 0 mm - 597 W/m² -
1788287218 24.44° C 36% 1026.8 hPa 0 mm - 612 W/m² -
1788286916 23.89° C 37% 1027 hPa 0 mm - 611 W/m² -
1788286612 24.44° C 36% 1027 hPa 0 mm - 619 W/m² -
1788286306 24.44° C 37% 1027.1 hPa 0 mm - 613 W/m² -
1788286006 24.44° C 37% 1027.1 hPa 0 mm - 620 W/m² -
1788285699 23.89° C 39% 1027.2 hPa 0 mm - 622 W/m² -
1788285399 23.89° C 37% 1027.2 hPa 0 mm - 599 W/m² -
1788285093 23.89° C 40% 1027.5 hPa 0 mm - 606 W/m² -
1788284789 23.89° C 41% 1027.6 hPa 0 mm - 588 W/m² -
1788284485 23.33° C 41% 1027.7 hPa 0 mm - 591 W/m² -
1788284180 22.22° C 41% 1027.5 hPa 0 mm - 606 W/m² -
1788283875 22.78° C 40% 1027.5 hPa 0 mm - 592 W/m² -

* Rain latest hour (hover to see other rain measurements)
** Current wind speed in m/s (hover to see current wind gust speed)